{"data":{"norad_id":57654,"epoch":"2026-09-20T00:03:16.267104Z","epoch_age_seconds":61315,"freshness":"FRESH","line1":"1 57654U 23123A   26263.00227161  .00000565  00000+0  81813-4 0  9996","line2":"2 57654  97.9066 179.5717 0002866 140.7940 219.3480 14.79871642166650","mean_motion":14.79871642,"eccentricity":0.0002866,"inclination_deg":97.9066,"raan_deg":179.5717,"arg_perigee_deg":140.794,"mean_anomaly_deg":219.348,"bstar":8.1813e-5,"rev_number":16665,"period_min":97.305736466028,"perigee_km":627.72087337918,"apogee_km":631.73778235832,"semimajor_km":7007.8663278687,"source":"CELESTRAK","updated_at":"2026-09-20T09:00:33.978438Z"}}